Time,TemperatureF,DewpointF,PressureIn,WindDirection,WindDirectionDegrees,WindSpeedMPH,WindSpeedGustMPH,Humidity,HourlyPrecipIn,Conditions,Clouds,dailyrainin,SoftwareType,DateUTC
2013-01-24 00:02:00,18.0,9.0,29.89,North,0,0.0,-999.0,67,-99.99,,,-99.99,,2013-01-24 07:02:00,
2013-01-24 00:11:00,19.0,10.0,29.88,NE,40,6.0,-999.0,67,-99.99,,,-99.99,,2013-01-24 07:11:00,
2013-01-24 00:22:00,19.0,10.0,29.88,NE,40,6.0,-999.0,67,-99.99,,,-99.99,,2013-01-24 07:22:00,
2013-01-24 00:32:00,21.0,10.0,29.86,SSW,200,12.0,-999.0,62,-99.99,,,-99.99,,2013-01-24 07:32:00,
2013-01-24 00:42:00,21.0,10.0,29.86,SSW,200,12.0,-999.0,62,-99.99,,,-99.99,,2013-01-24 07:42:00,
2013-01-24 00:52:00,21.0,10.0,29.85,South,190,10.0,15.0,62,-99.99,,,-99.99,,2013-01-24 07:52:00,
2013-01-24 01:02:00,21.0,10.0,29.85,South,190,10.0,15.0,62,-99.99,,,-99.99,,2013-01-24 08:02:00,
2013-01-24 01:12:00,19.0,10.0,29.85,SSW,200,9.0,-999.0,67,-99.99,,,-99.99,,2013-01-24 08:12:00,
2013-01-24 01:22:00,19.0,10.0,29.85,SSW,200,9.0,-999.0,67,-99.99,,,-99.99,,2013-01-24 08:22:00,
2013-01-24 01:32:00,21.0,10.0,29.85,SSW,200,9.0,-999.0,62,-99.99,,,-99.99,,2013-01-24 08:32:00,
2013-01-24 01:42:00,21.0,10.0,29.85,SSW,200,9.0,-999.0,62,-99.99,,,-99.99,,2013-01-24 08:42:00,
2013-01-24 01:52:00,28.0,12.0,29.84,SSW,200,10.0,-999.0,50,-99.99,,,-99.99,,2013-01-24 08:52:00,
2013-01-24 02:02:00,28.0,12.0,29.84,SSW,200,10.0,-999.0,50,-99.99,,,-99.99,,2013-01-24 09:02:00,
2013-01-24 02:12:00,36.0,12.0,29.84,SW,220,13.0,-999.0,37,-99.99,,,-99.99,,2013-01-24 09:12:00,
2013-01-24 02:22:00,36.0,12.0,29.84,SW,220,13.0,-999.0,37,-99.99,,,-99.99,,2013-01-24 09:22:00,
2013-01-24 02:32:00,34.0,14.0,29.84,SSW,200,10.0,-999.0,43,-99.99,,,-99.99,,2013-01-24 09:32:00,
2013-01-24 02:52:00,36.0,12.0,29.84,SW,220,9.0,-999.0,37,-99.99,,,-99.99,,2013-01-24 09:52:00,
2013-01-24 03:02:00,36.0,12.0,29.84,SW,220,9.0,-999.0,37,-99.99,,,-99.99,,2013-01-24 10:02:00,
2013-01-24 03:12:00,37.0,12.0,29.84,SSW,210,12.0,-999.0,34,-99.99,,,-99.99,,2013-01-24 10:12:00,
2013-01-24 03:22:00,37.0,12.0,29.84,SSW,210,12.0,-999.0,34,-99.99,,,-99.99,,2013-01-24 10:22:00,
2013-01-24 03:32:00,36.0,12.0,29.84,SSW,210,9.0,-999.0,37,-99.99,,,-99.99,,2013-01-24 10:32:00,
2013-01-24 03:42:00,36.0,12.0,29.84,SSW,210,9.0,-999.0,37,-99.99,,,-99.99,,2013-01-24 10:42:00,
2013-01-24 03:52:00,39.0,12.0,29.83,SW,220,14.0,20.0,32,-99.99,,,-99.99,,2013-01-24 10:52:00,
2013-01-24 04:02:00,39.0,12.0,29.83,SW,220,14.0,20.0,32,-99.99,,,-99.99,,2013-01-24 11:02:00,
2013-01-24 04:11:00,43.0,12.0,29.83,SW,220,13.0,20.0,28,-99.99,,,-99.99,,2013-01-24 11:11:00,
2013-01-24 04:22:00,43.0,12.0,29.83,SW,220,13.0,20.0,28,-99.99,,,-99.99,,2013-01-24 11:22:00,
2013-01-24 04:32:00,41.0,12.0,29.83,SW,220,14.0,-999.0,30,-99.99,,,-99.99,,2013-01-24 11:32:00,
2013-01-24 04:52:00,39.0,12.0,29.83,SSW,210,10.0,-999.0,32,-99.99,,,-99.99,,2013-01-24 11:52:00,
2013-01-24 05:03:00,39.0,12.0,29.83,SSW,210,10.0,-999.0,32,-99.99,,,-99.99,,2013-01-24 12:03:00,
2013-01-24 05:12:00,39.0,12.0,29.83,SSW,210,10.0,-999.0,32,-99.99,,,-99.99,,2013-01-24 12:12:00,
2013-01-24 05:22:00,39.0,12.0,29.83,SSW,210,10.0,-999.0,32,-99.99,,,-99.99,,2013-01-24 12:22:00,
2013-01-24 05:32:00,34.0,12.0,29.83,SSW,200,9.0,-999.0,40,-99.99,,,-99.99,,2013-01-24 12:32:00,
2013-01-24 05:43:00,34.0,12.0,29.83,SSW,200,9.0,-999.0,40,-99.99,,,-99.99,,2013-01-24 12:43:00,
2013-01-24 05:53:00,37.0,12.0,29.84,SSW,210,9.0,-999.0,34,-99.99,,,-99.99,,2013-01-24 12:53:00,
2013-01-24 06:02:00,37.0,12.0,29.84,SSW,210,9.0,-999.0,34,-99.99,,,-99.99,,2013-01-24 13:02:00,
2013-01-24 06:12:00,39.0,12.0,29.84,SSW,210,6.0,-999.0,32,-99.99,,,-99.99,,2013-01-24 13:12:00,
2013-01-24 06:22:00,39.0,12.0,29.84,SSW,210,6.0,-999.0,32,-99.99,,,-99.99,,2013-01-24 13:22:00,
2013-01-24 06:32:00,39.0,12.0,29.84,SSW,210,10.0,-999.0,32,-99.99,,,-99.99,,2013-01-24 13:32:00,
2013-01-24 06:42:00,39.0,12.0,29.84,SSW,210,10.0,-999.0,32,-99.99,,,-99.99,,2013-01-24 13:42:00,
2013-01-24 06:52:00,39.0,12.0,29.85,SSW,200,6.0,-999.0,32,-99.99,,,-99.99,,2013-01-24 13:52:00,
2013-01-24 07:02:00,39.0,12.0,29.85,SSW,200,6.0,-999.0,32,-99.99,,,-99.99,,2013-01-24 14:02:00,
2013-01-24 07:12:00,39.0,12.0,29.85,SSW,200,6.0,-999.0,32,-99.99,,,-99.99,,2013-01-24 14:12:00,
2013-01-24 07:22:00,39.0,12.0,29.85,SSW,200,6.0,-999.0,32,-99.99,,,-99.99,,2013-01-24 14:22:00,
2013-01-24 07:32:00,39.0,16.0,29.86,SSW,210,6.0,-999.0,38,-99.99,,,-99.99,,2013-01-24 14:32:00,
2013-01-24 07:43:00,39.0,16.0,29.86,SSW,210,6.0,-999.0,38,-99.99,,,-99.99,,2013-01-24 14:43:00,
2013-01-24 07:54:00,37.0,14.0,29.87,North,0,0.0,-999.0,37,-99.99,,,-99.99,,2013-01-24 14:54:00,
2013-01-24 08:03:00,37.0,14.0,29.87,North,0,0.0,-999.0,37,-99.99,,,-99.99,,2013-01-24 15:03:00,
2013-01-24 08:12:00,34.0,12.0,29.86,North,0,0.0,-999.0,40,-99.99,,,-99.99,,2013-01-24 15:12:00,
2013-01-24 08:22:00,34.0,12.0,29.86,North,0,0.0,-999.0,40,-99.99,,,-99.99,,2013-01-24 15:22:00,
2013-01-24 08:32:00,48.0,21.0,29.86,SW,230,17.0,24.0,34,-99.99,,,-99.99,,2013-01-24 15:32:00,
2013-01-24 08:52:00,48.0,21.0,29.86,WSW,240,18.0,29.0,34,-99.99,,,-99.99,,2013-01-24 15:52:00,
2013-01-24 09:02:00,48.0,21.0,29.86,WSW,240,18.0,29.0,34,-99.99,,,-99.99,,2013-01-24 16:02:00,
2013-01-24 09:11:00,48.0,21.0,29.86,WSW,240,13.0,24.0,34,-99.99,,,-99.99,,2013-01-24 16:11:00,
2013-01-24 09:22:00,48.0,21.0,29.86,WSW,240,13.0,24.0,34,-99.99,,,-99.99,,2013-01-24 16:22:00,
2013-01-24 09:33:00,50.0,21.0,29.87,SW,230,15.0,25.0,31,-99.99,,,-99.99,,2013-01-24 16:33:00,
2013-01-24 10:01:00,52.0,23.0,29.88,North,0,0.0,-999.0,32,-99.99,,,-99.99,,2013-01-24 17:01:00,
2013-01-24 10:11:00,48.0,21.0,29.88,South,170,9.0,-999.0,34,-99.99,,,-99.99,,2013-01-24 17:11:00,
2013-01-24 10:21:00,48.0,21.0,29.88,South,170,9.0,-999.0,34,-99.99,,,-99.99,,2013-01-24 17:21:00,
2013-01-24 10:31:00,48.0,21.0,29.89,North,0,0.0,-999.0,34,-99.99,,,-99.99,,2013-01-24 17:31:00,
2013-01-24 10:42:00,48.0,21.0,29.89,North,0,0.0,-999.0,34,-99.99,,,-99.99,,2013-01-24 17:42:00,
2013-01-24 10:51:00,46.0,19.0,29.91,East,100,9.0,-999.0,33,-99.99,,,-99.99,,2013-01-24 17:51:00,
2013-01-24 11:02:00,46.0,19.0,29.91,East,100,9.0,-999.0,33,-99.99,,,-99.99,,2013-01-24 18:02:00,
2013-01-24 11:11:00,46.0,19.0,29.91,East,100,9.0,-999.0,33,-99.99,,,-99.99,,2013-01-24 18:11:00,
2013-01-24 11:22:00,46.0,19.0,29.91,East,100,9.0,-999.0,33,-99.99,,,-99.99,,2013-01-24 18:22:00,
2013-01-24 11:32:00,46.0,19.0,29.91,South,170,8.0,-999.0,33,-99.99,,,-99.99,,2013-01-24 18:32:00,
2013-01-24 11:43:00,46.0,19.0,29.91,South,170,8.0,-999.0,33,-99.99,,,-99.99,,2013-01-24 18:43:00,
2013-01-24 11:53:00,46.0,19.0,29.91,North,0,0.0,-999.0,33,-99.99,,,-99.99,,2013-01-24 18:53:00,
2013-01-24 12:01:00,46.0,19.0,29.91,North,0,0.0,-999.0,33,-99.99,,,-99.99,,2013-01-24 19:01:00,
2013-01-24 12:12:00,48.0,21.0,29.92,North,0,0.0,-999.0,34,-99.99,,,-99.99,,2013-01-24 19:12:00,
2013-01-24 12:21:00,48.0,21.0,29.92,North,0,0.0,-999.0,34,-99.99,,,-99.99,,2013-01-24 19:21:00,
2013-01-24 12:32:00,54.0,23.0,29.91,West,260,22.0,36.0,30,-99.99,,,-99.99,,2013-01-24 19:32:00,
2013-01-24 12:42:00,54.0,23.0,29.91,West,260,22.0,36.0,30,-99.99,,,-99.99,,2013-01-24 19:42:00,
2013-01-24 12:51:00,54.0,23.0,29.91,West,270,25.0,35.0,30,-99.99,,,-99.99,,2013-01-24 19:51:00,
2013-01-24 13:01:00,54.0,23.0,29.91,West,270,25.0,35.0,30,-99.99,,,-99.99,,2013-01-24 20:01:00,
2013-01-24 13:11:00,54.0,23.0,29.92,West,280,20.0,36.0,30,-99.99,,,-99.99,,2013-01-24 20:11:00,
2013-01-24 13:22:00,54.0,23.0,29.92,West,280,20.0,36.0,30,-99.99,,,-99.99,,2013-01-24 20:22:00,
2013-01-24 13:32:00,54.0,25.0,29.92,West,270,18.0,33.0,32,-99.99,,,-99.99,,2013-01-24 20:32:00,
2013-01-24 13:42:00,54.0,25.0,29.92,West,270,18.0,33.0,32,-99.99,,,-99.99,,2013-01-24 20:42:00,
2013-01-24 13:52:00,54.0,21.0,29.91,West,280,32.0,38.0,27,-99.99,,,-99.99,,2013-01-24 20:52:00,
2013-01-24 14:02:00,54.0,21.0,29.91,West,280,32.0,38.0,27,-99.99,,,-99.99,,2013-01-24 21:02:00,
2013-01-24 14:11:00,54.0,21.0,29.92,WNW,290,16.0,29.0,27,-99.99,,,-99.99,,2013-01-24 21:11:00,
2013-01-24 14:22:00,54.0,21.0,29.92,WNW,290,16.0,29.0,27,-99.99,,,-99.99,,2013-01-24 21:22:00,
2013-01-24 14:32:00,54.0,23.0,29.93,WNW,300,18.0,29.0,30,-99.99,,,-99.99,,2013-01-24 21:32:00,
2013-01-24 14:42:00,54.0,23.0,29.93,WNW,300,18.0,29.0,30,-99.99,,,-99.99,,2013-01-24 21:42:00,
2013-01-24 14:52:00,54.0,23.0,29.94,West,280,16.0,25.0,30,-99.99,,,-99.99,,2013-01-24 21:52:00,
2013-01-24 15:02:00,54.0,23.0,29.94,West,280,16.0,25.0,30,-99.99,,,-99.99,,2013-01-24 22:02:00,
2013-01-24 15:12:00,54.0,21.0,29.94,West,260,16.0,22.0,27,-99.99,,,-99.99,,2013-01-24 22:12:00,
2013-01-24 15:22:00,54.0,21.0,29.94,West,260,16.0,22.0,27,-99.99,,,-99.99,,2013-01-24 22:22:00,
2013-01-24 15:32:00,54.0,21.0,29.95,NW,310,13.0,23.0,27,-99.99,,,-99.99,,2013-01-24 22:32:00,
2013-01-24 15:42:00,54.0,21.0,29.95,NW,310,13.0,23.0,27,-99.99,,,-99.99,,2013-01-24 22:42:00,
2013-01-24 15:52:00,54.0,19.0,29.96,WNW,290,14.0,21.0,25,-99.99,,,-99.99,,2013-01-24 22:52:00,
2013-01-24 16:02:00,54.0,19.0,29.96,WNW,290,14.0,21.0,25,-99.99,,,-99.99,,2013-01-24 23:02:00,
2013-01-24 16:11:00,54.0,19.0,29.96,West,270,18.0,25.0,25,-99.99,,,-99.99,,2013-01-24 23:11:00,
2013-01-24 16:21:00,54.0,19.0,29.96,West,270,18.0,25.0,25,-99.99,,,-99.99,,2013-01-24 23:21:00,
2013-01-24 16:32:00,52.0,19.0,29.97,West,260,13.0,21.0,27,-99.99,,,-99.99,,2013-01-24 23:32:00,
2013-01-24 16:42:00,52.0,19.0,29.97,West,260,13.0,21.0,27,-99.99,,,-99.99,,2013-01-24 23:42:00,
2013-01-24 16:52:00,52.0,19.0,29.98,WSW,250,16.0,22.0,27,-99.99,,,-99.99,,2013-01-24 23:52:00,
2013-01-24 17:01:00,52.0,19.0,29.98,WSW,250,16.0,22.0,27,-99.99,,,-99.99,,2013-01-25 00:01:00,
2013-01-24 17:12:00,48.0,19.0,29.99,WSW,250,8.0,-999.0,31,-99.99,,,-99.99,,2013-01-25 00:12:00,
2013-01-24 17:22:00,48.0,19.0,29.99,WSW,250,8.0,-999.0,31,-99.99,,,-99.99,,2013-01-25 00:22:00,
2013-01-24 17:32:00,46.0,18.0,30.00,North,0,0.0,-999.0,31,-99.99,,,-99.99,,2013-01-25 00:32:00,
2013-01-24 17:41:00,46.0,18.0,30.00,North,0,0.0,-999.0,31,-99.99,,,-99.99,,2013-01-25 00:41:00,
2013-01-24 17:51:00,46.0,18.0,30.01,North,0,0.0,-999.0,31,-99.99,,,-99.99,,2013-01-25 00:51:00,
2013-01-24 18:01:00,46.0,18.0,30.01,North,0,0.0,-999.0,31,-99.99,,,-99.99,,2013-01-25 01:01:00,
2013-01-24 18:11:00,43.0,18.0,30.02,WNW,290,5.0,-999.0,35,-99.99,,,-99.99,,2013-01-25 01:11:00,
2013-01-24 18:21:00,43.0,18.0,30.02,WNW,290,5.0,-999.0,35,-99.99,,,-99.99,,2013-01-25 01:21:00,
2013-01-24 18:31:00,39.0,16.0,30.03,North,0,0.0,-999.0,38,-99.99,,,-99.99,,2013-01-25 01:31:00,
2013-01-24 18:42:00,39.0,16.0,30.03,North,0,0.0,-999.0,38,-99.99,,,-99.99,,2013-01-25 01:42:00,
2013-01-24 18:51:00,37.0,16.0,30.04,WNW,300,8.0,-999.0,40,-99.99,,,-99.99,,2013-01-25 01:51:00,
2013-01-24 19:02:00,37.0,16.0,30.04,WNW,300,8.0,-999.0,40,-99.99,,,-99.99,,2013-01-25 02:02:00,
2013-01-24 19:11:00,39.0,16.0,30.04,WNW,290,6.0,-999.0,38,-99.99,,,-99.99,,2013-01-25 02:11:00,
2013-01-24 19:22:00,39.0,16.0,30.04,WNW,290,6.0,-999.0,38,-99.99,,,-99.99,,2013-01-25 02:22:00,
2013-01-24 19:31:00,37.0,16.0,30.04,WNW,290,7.0,-999.0,40,-99.99,,,-99.99,,2013-01-25 02:31:00,
2013-01-24 19:42:00,37.0,16.0,30.04,WNW,290,7.0,-999.0,40,-99.99,,,-99.99,,2013-01-25 02:42:00,
2013-01-24 19:52:00,37.0,16.0,30.04,WNW,290,7.0,-999.0,40,-99.99,,,-99.99,,2013-01-25 02:52:00,
2013-01-24 20:01:00,37.0,16.0,30.04,WNW,290,7.0,-999.0,40,-99.99,,,-99.99,,2013-01-25 03:01:00,
2013-01-24 20:11:00,36.0,14.0,30.04,North,0,0.0,-999.0,40,-99.99,,,-99.99,,2013-01-25 03:11:00,
2013-01-24 20:22:00,36.0,14.0,30.04,North,0,0.0,-999.0,40,-99.99,,,-99.99,,2013-01-25 03:22:00,
2013-01-24 20:32:00,36.0,14.0,30.05,North,0,0.0,-999.0,40,-99.99,,,-99.99,,2013-01-25 03:32:00,
2013-01-24 20:41:00,36.0,14.0,30.05,North,0,0.0,-999.0,40,-99.99,,,-99.99,,2013-01-25 03:41:00,
2013-01-24 20:52:00,36.0,14.0,30.05,North,0,0.0,-999.0,40,-99.99,,,-99.99,,2013-01-25 03:52:00,
2013-01-24 21:02:00,36.0,14.0,30.05,North,0,0.0,-999.0,40,-99.99,,,-99.99,,2013-01-25 04:02:00,
2013-01-24 21:11:00,34.0,12.0,30.05,North,0,0.0,-999.0,40,-99.99,,,-99.99,,2013-01-25 04:11:00,
2013-01-24 21:22:00,34.0,12.0,30.05,North,0,0.0,-999.0,40,-99.99,,,-99.99,,2013-01-25 04:22:00,
2013-01-24 21:31:00,30.0,16.0,30.05,North,0,0.0,-999.0,54,-99.99,,,-99.99,,2013-01-25 04:31:00,
2013-01-24 21:41:00,30.0,16.0,30.05,North,0,0.0,-999.0,54,-99.99,,,-99.99,,2013-01-25 04:41:00,
2013-01-24 21:51:00,34.0,16.0,30.06,North,0,0.0,-999.0,47,-99.99,,,-99.99,,2013-01-25 04:51:00,
2013-01-24 22:03:00,34.0,16.0,30.06,North,0,0.0,-999.0,47,-99.99,,,-99.99,,2013-01-25 05:03:00,
2013-01-24 22:12:00,34.0,16.0,30.05,North,0,0.0,-999.0,47,-99.99,,,-99.99,,2013-01-25 05:12:00,
2013-01-24 22:22:00,34.0,16.0,30.05,North,0,0.0,-999.0,47,-99.99,,,-99.99,,2013-01-25 05:22:00,
2013-01-24 22:32:00,34.0,16.0,30.05,WSW,240,5.0,-999.0,47,-99.99,,,-99.99,,2013-01-25 05:32:00,
2013-01-24 22:42:00,34.0,16.0,30.05,WSW,240,5.0,-999.0,47,-99.99,,,-99.99,,2013-01-25 05:42:00,
2013-01-24 22:51:00,34.0,16.0,30.06,North,0,0.0,-999.0,47,-99.99,,,-99.99,,2013-01-25 05:51:00,
2013-01-24 23:02:00,34.0,16.0,30.06,North,0,0.0,-999.0,47,-99.99,,,-99.99,,2013-01-25 06:02:00,
2013-01-24 23:11:00,30.0,16.0,30.06,WSW,240,6.0,-999.0,54,-99.99,,,-99.99,,2013-01-25 06:11:00,
2013-01-24 23:21:00,30.0,16.0,30.06,WSW,240,6.0,-999.0,54,-99.99,,,-99.99,,2013-01-25 06:21:00,
2013-01-24 23:31:00,30.0,16.0,30.06,North,0,0.0,-999.0,54,-99.99,,,-99.99,,2013-01-25 06:31:00,
2013-01-24 23:41:00,30.0,16.0,30.06,North,0,0.0,-999.0,54,-99.99,,,-99.99,,2013-01-25 06:41:00,
2013-01-24 23:51:00,28.0,16.0,30.06,WSW,240,5.0,-999.0,58,-99.99,,,-99.99,,2013-01-25 06:51:00,